SL-16 DEB, 22338

Orbit data source: Space-Track

SL-16 DEB, 22338 is space debris in LEO originally from a launch on Fri, 25 Dec 1992 UTC launched from the Tyuratam Missile And Space Complex (TTMTR). Debris objects in space refer to the collection of defunct objects orbiting the Earth. Examples of debris include non-operational satellites, rocket bodies, and fragments generated from explosions, collisions, or faulty payload assembly.

Loading next visibility...
Identifier
22338, 1992-093AB
Orbit
LEO
Country
Flag of CISCIS
Related business
Manufacturer
Unknown
Mission
Spacecraft
Bus & Motor
Unknown
Mass
Unknown
Launch date (UTC)
1992-12-25 (33 years ago)
Launch vehicle
Unknown
Launch site
Tyuratam Missile And Space Complex (TTMTR)
Object type
Payload
Rocket body
Debris
Shape & HBR
Unknown shape, 0.1 m
Radar Cross Section
Small (<0.1 m²)

Expand to show TLE details & history
Last TLE update: 1 day ago

TLE from 1 day ago
0 SL-16 DEB
1 22338U 92093AB  25305.25340528  .00006209  00000-0  90338-3 0  9998
2 22338  70.6144 251.8817 0065570  61.3810  52.8487 14.74837783721888
Epoch: 2025-11-01T06:04Z
TLE epoch observation values (Epoch: 2025-11-01T06:04:54.216Z)
Latitude
58.99484°
Longitude
-95.74397°
Altitude
627.467 km
Speed
7.566 km/s
True Right ascension
02h 25m 04s
True Declination
58° 50' 24"
Sunlit
Object was in full shadow at epoch
Visualization orbit readout
Latitude
Unknown
Longitude
Unknown
Altitude
Unknown
Speed
Unknown
Apparent Right ascension
Unknown
Apparent Declination
Unknown
Sunlit
N/A
Visualization observer readout
Local Sidereal Time
05:11:59
Azimuth
Unknown
Elevation
Unknown
Doppler factor
Unknown
Orbital elements
Apogee altitude
689.613 km
Perigee altitude
597.531 km
Semi-major axis
7,021.709 km
Eccentricity
0.00656
Inclination
70.6144°
RAAN
251.8817°
Arg. of periapsis
61.381°
True anomaly
53.45055°
Mean anomaly
52.8487°
Eccentric anomaly
53.14933°
Mean motion
3.68875 °/min
Orbital period
97.59 mins
BSTAR
0.00090338
Loading maneuver chart data...
Computing Atmospheric mass density...
Loading historical data...
Loading historical data...
Loading historical data...
Loading historical data...
Loading historical data...
Loading historical data...
Loading historical data...

Documentation

Showing up to 5 results
|